Terminal Aerodrome Forecast
Issued by NWS

Home | Current Version | Previous Version | Text Only | Print | Product List | Glossary On
Versions: 1 2 3 4 5 6 7 8 9 10 11 12 13 14 15 16 17 18 19 20 21 22 23 24 25 26 27 28 29 30 31 32
000
FTUS42 KCAE 272300
TAFCUB
TAF
KCUB 272333Z 2800/2824 02006KT P6SM OVC025
      TEMPO 2800/2804 6SM -SHRA
     FM280700 33005KT P6SM BKN050
     FM281000 32005KT P6SM SCT250=

USA.gov is the U.S. government's official web portal to all federal, state and local government web resources and services.